| time (UTC) | temp C | wind direction | speed KPH | gust KPH | rain 1hr cm | rain 24hr cm | rain mn cm | humidity % | barometer mb |
| 20260508075309 | 10 | 79 | 3.2 | 3.2 | 0.00 | 0.00 | 0.00 | 27 | 1235.4 |
| 20260508074806 | 10 | 93 | 3.2 | 3.2 | 0.00 | 0.00 | 0.00 | 26 | 1235.4 |
| 20260508074303 | 10 | 69 | 1.6 | 3.2 | 0.00 | 0.00 | 0.00 | 26 | 1235.4 |
| 20260508073800 | 10 | 80 | 3.2 | 3.2 | 0.00 | 0.00 | 0.00 | 25 | 1235.4 |
| 20260508073258 | 10 | 86 | 3.2 | 3.2 | 0.00 | 0.00 | 0.00 | 25 | 1235.8 |
| 20260508072753 | 10 | 6 | 0.0 | 3.2 | 0.00 | 0.00 | 0.00 | 24 | 1235.6 |
| 20260508072250 | 11 | 46 | 3.2 | 3.2 | 0.00 | 0.00 | 0.00 | 24 | 1235.8 |
| 20260508071748 | 11 | 65 | 3.2 | 4.8 | 0.00 | 0.00 | 0.00 | 23 | 1235.6 |
| 20260508071246 | 11 | 74 | 3.2 | 3.2 | 0.00 | 0.00 | 0.00 | 24 | 1236.0 |
| 20260508070743 | 11 | 77 | 3.2 | 4.8 | 0.00 | 0.00 | 0.00 | 23 | 1235.6 |
| 20260508070242 | 11 | 77 | 3.2 | 4.8 | 0.00 | 0.00 | 0.00 | 23 | 1235.6 |
| 20260508065738 | 10 | 79 | 3.2 | 3.2 | 0.00 | 0.00 | 0.00 | 24 | 1235.9 |
| 20260508065236 | 11 | 92 | 3.2 | 3.2 | 0.00 | 0.00 | 0.00 | 24 | 1235.4 |
| 20260508064734 | 10 | 63 | 6.4 | 8.0 | 0.00 | 0.00 | 0.00 | 24 | 1235.6 |
| 20260508064232 | 10 | 79 | 3.2 | 4.8 | 0.00 | 0.00 | 0.00 | 24 | 1235.5 |
| 20260508063729 | 10 | 86 | 3.2 | 4.8 | 0.00 | 0.00 | 0.00 | 24 | 1235.6 |
| 20260508063227 | 10 | 103 | 3.2 | 3.2 | 0.00 | 0.00 | 0.00 | 25 | 1235.5 |
| 20260508062724 | 10 | 77 | 3.2 | 3.2 | 0.00 | 0.00 | 0.00 | 24 | 1235.9 |
| 20260508062221 | 10 | 85 | 3.2 | 4.8 | 0.00 | 0.00 | 0.00 | 24 | 1235.8 |
| 20260508061718 | 10 | 98 | 3.2 | 3.2 | 0.00 | 0.00 | 0.00 | 25 | 1235.5 |
| 20260508061215 | 10 | 83 | 3.2 | 3.2 | 0.00 | 0.00 | 0.00 | 24 | 1235.4 |
| 20260508060712 | 10 | 114 | 3.2 | 6.4 | 0.00 | 0.00 | 0.00 | 23 | 1235.5 |
| 20260508060209 | 10 | 96 | 3.2 | 3.2 | 0.00 | 0.00 | 0.00 | 23 | 1235.8 |
| 20260508055705 | 11 | 92 | 3.2 | 3.2 | 0.00 | 0.00 | 0.00 | 22 | 1235.8 |
| 20260508055202 | 11 | 60 | 3.2 | 4.8 | 0.00 | 0.00 | 0.00 | 22 | 1235.6 |
| 20260508054658 | 11 | 79 | 1.6 | 3.2 | 0.00 | 0.00 | 0.00 | 22 | 1235.6 |
| 20260508054156 | 12 | 104 | 3.2 | 4.8 | 0.00 | 0.00 | 0.00 | 22 | 1235.5 |
| 20260508053653 | 12 | 57 | 4.8 | 4.8 | 0.00 | 0.00 | 0.00 | 20 | 1235.6 |
| 20260508053150 | 12 | 98 | 3.2 | 3.2 | 0.00 | 0.00 | 0.00 | 19 | 1235.8 |
| 20260508052648 | 13 | 83 | 3.2 | 4.8 | 0.00 | 0.00 | 0.00 | 18 | 1235.4 |
| 20260508052144 | 13 | 72 | 3.2 | 3.2 | 0.00 | 0.00 | 0.00 | 18 | 1235.5 |
| 20260508051641 | 13 | 79 | 3.2 | 3.2 | 0.00 | 0.00 | 0.00 | 18 | 1235.6 |
| 20260508051136 | 13 | 75 | 3.2 | 3.2 | 0.00 | 0.00 | 0.00 | 18 | 1235.6 |
| 20260508050632 | 13 | 84 | 3.2 | 4.8 | 0.00 | 0.00 | 0.00 | 18 | 1235.8 |
| 20260508050131 | 13 | 85 | 1.6 | 3.2 | 0.00 | 0.00 | 0.00 | 18 | 1235.6 |
| 20260508045626 | 13 | 100 | 1.6 | 3.2 | 0.00 | 0.00 | 0.00 | 19 | 1235.5 |
| 20260508045124 | 12 | 88 | 3.2 | 3.2 | 0.00 | 0.00 | 0.00 | 19 | 1235.4 |
| 20260508044621 | 12 | 91 | 1.6 | 3.2 | 0.00 | 0.00 | 0.00 | 20 | 1235.5 |
| 20260508044117 | 12 | 126 | 3.2 | 3.2 | 0.00 | 0.00 | 0.00 | 20 | 1235.5 |
| 20260508043614 | 11 | 105 | 1.6 | 3.2 | 0.00 | 0.00 | 0.00 | 22 | 1235.6 |
| 20260508043112 | 11 | 108 | 3.2 | 3.2 | 0.00 | 0.00 | 0.00 | 20 | 1235.6 |
| 20260508042608 | 12 | 107 | 3.2 | 3.2 | 0.00 | 0.00 | 0.00 | 20 | 1235.4 |
| 20260508042105 | 12 | 69 | 3.2 | 4.8 | 0.00 | 0.00 | 0.00 | 19 | 1235.5 |
| 20260508041601 | 12 | 57 | 3.2 | 4.8 | 0.00 | 0.00 | 0.00 | 18 | 1235.4 |
| 20260508041058 | 13 | 74 | 3.2 | 4.8 | 0.00 | 0.00 | 0.00 | 17 | 1235.4 |
| 20260508040555 | 14 | 62 | 3.2 | 6.4 | 0.00 | 0.00 | 0.00 | 16 | 1235.3 |
| 20260508040053 | 15 | 70 | 1.6 | 3.2 | 0.00 | 0.00 | 0.00 | 16 | 1235.5 |
| 20260508035549 | 14 | 53 | 1.6 | 3.2 | 0.00 | 0.00 | 0.00 | 16 | 1235.4 |
| 20260508035046 | 14 | 99 | 1.6 | 3.2 | 0.00 | 0.00 | 0.00 | 16 | 1235.2 |
| 20260508034543 | 14 | 69 | 3.2 | 4.8 | 0.00 | 0.00 | 0.00 | 16 | 1235.4 |
| 20260508034040 | 13 | 58 | 1.6 | 3.2 | 0.00 | 0.00 | 0.00 | 16 | 1235.2 |
| 20260508033538 | 13 | 89 | 1.6 | 4.8 | 0.00 | 0.00 | 0.00 | 16 | 1235.2 |
| 20260508033036 | 13 | 76 | 3.2 | 4.8 | 0.00 | 0.00 | 0.00 | 16 | 1235.2 |
| 20260508032532 | 13 | 68 | 1.6 | 3.2 | 0.00 | 0.00 | 0.00 | 15 | 1234.9 |
| 20260508032030 | 14 | 78 | 3.2 | 6.4 | 0.00 | 0.00 | 0.00 | 15 | 1234.9 |
| 20260508031527 | 15 | 67 | 3.2 | 4.8 | 0.00 | 0.00 | 0.00 | 14 | 1234.7 |
| 20260508031022 | 15 | 83 | 3.2 | 3.2 | 0.00 | 0.00 | 0.00 | 14 | 1234.9 |
| 20260508030520 | 16 | 69 | 3.2 | 3.2 | 0.00 | 0.00 | 0.00 | 13 | 1234.7 |
| 20260508030018 | 17 | 52 | 1.6 | 3.2 | 0.00 | 0.00 | 0.00 | 13 | 1234.6 |
| 20260508025513 | 17 | 63 | 0.0 | 3.2 | 0.00 | 0.00 | 0.00 | 12 | 1234.5 |
| 20260508025010 | 17 | 68 | 0.0 | 3.2 | 0.00 | 0.00 | 0.00 | 12 | 1234.5 |
| 20260508024506 | 17 | 11 | 0.0 | 3.2 | 0.00 | 0.00 | 0.00 | 11 | 1234.5 |
| 20260508024003 | 18 | 35 | 1.6 | 3.2 | 0.00 | 0.00 | 0.00 | 11 | 1234.4 |
| 20260508023500 | 18 | 45 | 1.6 | 1.6 | 0.00 | 0.00 | 0.00 | 11 | 1234.4 |
| 20260508022957 | 18 | 48 | 0.0 | 3.2 | 0.00 | 0.00 | 0.00 | 11 | 1234.2 |
| 20260508022453 | 18 | 328 | 1.6 | 3.2 | 0.00 | 0.00 | 0.00 | 11 | 1234.1 |
| 20260508021949 | 19 | 89 | 0.0 | 3.2 | 0.00 | 0.00 | 0.00 | 10 | 1234.1 |
| 20260508021446 | 20 | 36 | 0.0 | 3.2 | 0.00 | 0.00 | 0.00 | 10 | 1234.1 |
| 20260508020942 | 20 | 323 | 0.0 | 4.8 | 0.00 | 0.00 | 0.00 | 10 | 1233.9 |
| 20260508020440 | 20 | 5 | 0.0 | 3.2 | 0.00 | 0.00 | 0.00 | 10 | 1233.6 |
| 20260508015937 | 21 | 23 | 1.6 | 4.8 | 0.00 | 0.00 | 0.00 | 9 | 1233.8 |
| 20260508015435 | 21 | 328 | 4.8 | 8.0 | 0.00 | 0.00 | 0.00 | 9 | 1233.9 |
| 20260508014931 | 21 | 357 | 4.8 | 6.4 | 0.00 | 0.00 | 0.00 | 9 | 1233.6 |
| 20260508014428 | 21 | 349 | 3.2 | 8.0 | 0.00 | 0.00 | 0.00 | 9 | 1233.6 |
| 20260508013923 | 22 | 335 | 0.0 | 4.8 | 0.00 | 0.00 | 0.00 | 9 | 1233.6 |
| 20260508013420 | 22 | 337 | 4.8 | 8.0 | 0.00 | 0.00 | 0.00 | 9 | 1233.5 |
| 20260508012917 | 22 | 335 | 3.2 | 3.2 | 0.00 | 0.00 | 0.00 | 9 | 1233.5 |
| 20260508012414 | 22 | 340 | 0.0 | 3.2 | 0.00 | 0.00 | 0.00 | 10 | 1233.6 |
| 20260508011912 | 23 | 142 | 0.0 | 1.6 | 0.00 | 0.00 | 0.00 | 13 | 1233.5 |
| 20260508011410 | 23 | 278 | 0.0 | 8.0 | 0.00 | 0.00 | 0.00 | 12 | 1233.2 |
| 20260508010907 | 24 | 0 | 0.0 | 3.2 | 0.00 | 0.00 | 0.00 | 11 | 1233.3 |
| 20260508010404 | 25 | 183 | 1.6 | 3.2 | 0.00 | 0.00 | 0.00 | 11 | 1233.2 |
| 20260508005901 | 26 | 224 | 1.6 | 3.2 | 0.00 | 0.00 | 0.00 | 11 | 1233.3 |
| 20260508005357 | 27 | 0 | 0.0 | 3.2 | 0.00 | 0.00 | 0.00 | 10 | 1233.2 |
| 20260508004854 | 26 | 316 | 1.6 | 3.2 | 0.00 | 0.00 | 0.00 | 10 | 1233.3 |
| 20260508004350 | 27 | 115 | 0.0 | 4.8 | 0.00 | 0.00 | 0.00 | 10 | 1233.2 |
| 20260508003847 | 27 | 85 | 0.0 | 6.4 | 0.00 | 0.00 | 0.00 | 10 | 1233.2 |
| 20260508003344 | 27 | 300 | 1.6 | 3.2 | 0.00 | 0.00 | 0.00 | 10 | 1233.2 |
| 20260508002841 | 27 | 184 | 3.2 | 6.4 | 0.00 | 0.00 | 0.00 | 10 | 1233.3 |
| 20260508002338 | 28 | 334 | 1.6 | 3.2 | 0.00 | 0.00 | 0.00 | 10 | 1233.1 |
| 20260508001834 | 27 | 299 | 1.6 | 3.2 | 0.00 | 0.00 | 0.00 | 10 | 1233.2 |
| 20260508001330 | 26 | 338 | 0.0 | 3.2 | 0.00 | 0.00 | 0.00 | 10 | 1233.2 |
| 20260508000826 | 26 | 174 | 3.2 | 8.0 | 0.00 | 0.00 | 0.00 | 10 | 1233.3 |
| 20260508000323 | 27 | 199 | 3.2 | 3.2 | 0.00 | 0.00 | 0.00 | 10 | 1233.3 |
| 20260507235819 | 27 | 211 | 0.0 | 1.6 | 0.00 | 0.00 | 0.00 | 10 | 1233.4 |
| 20260507235317 | 26 | 12 | 3.2 | 6.4 | 0.00 | 0.00 | 0.00 | 10 | 1233.5 |
| 20260507234814 | 27 | 182 | 4.8 | 4.8 | 0.00 | 0.00 | 0.00 | 9 | 1233.2 |
| 20260507234310 | 27 | 173 | 3.2 | 3.2 | 0.00 | 0.00 | 0.00 | 9 | 1233.5 |
| 20260507233807 | 26 | 349 | 3.2 | 8.0 | 0.00 | 0.00 | 0.00 | 9 | 1233.4 |
| 20260507233305 | 27 | 340 | 4.8 | 9.7 | 0.00 | 0.00 | 0.00 | 9 | 1233.5 |
| 20260507232803 | 27 | 331 | 1.6 | 14.5 | 0.00 | 0.00 | 0.00 | 9 | 1233.4 |
| 20260507232259 | 26 | 269 | 0.0 | 6.4 | 0.00 | 0.00 | 0.00 | 9 | 1233.6 |
| 20260507231755 | 25 | 66 | 0.0 | 6.4 | 0.00 | 0.00 | 0.00 | 9 | 1233.5 |
| 20260507231252 | 26 | 327 | 14.5 | 14.5 | 0.00 | 0.00 | 0.00 | 9 | 1233.6 |
| 20260507230749 | 26 | 323 | 1.6 | 6.4 | 0.00 | 0.00 | 0.00 | 9 | 1233.8 |
| 20260507230247 | 26 | 199 | 3.2 | 9.7 | 0.00 | 0.00 | 0.00 | 9 | 1233.8 |
| 20260507225746 | 26 | 164 | 0.0 | 9.7 | 0.00 | 0.00 | 0.00 | 10 | 1234.0 |
| 20260507225242 | 26 | 321 | 0.0 | 6.4 | 0.00 | 0.00 | 0.00 | 9 | 1233.9 |
| 20260507224738 | 26 | 344 | 4.8 | 8.0 | 0.00 | 0.00 | 0.00 | 9 | 1234.1 |
| 20260507224235 | 26 | 334 | 4.8 | 8.0 | 0.00 | 0.00 | 0.00 | 9 | 1233.9 |
| 20260507223731 | 26 | 124 | 1.6 | 4.8 | 0.00 | 0.00 | 0.00 | 10 | 1234.0 |
| 20260507223228 | 25 | 153 | 0.0 | 4.8 | 0.00 | 0.00 | 0.00 | 9 | 1234.1 |
| 20260507222725 | 26 | 55 | 0.0 | 11.3 | 0.00 | 0.00 | 0.00 | 9 | 1234.2 |
| 20260507222221 | 26 | 320 | 6.4 | 17.7 | 0.00 | 0.00 | 0.00 | 9 | 1234.0 |
| 20260507221718 | 25 | 314 | 1.6 | 6.4 | 0.00 | 0.00 | 0.00 | 9 | 1234.1 |
| 20260507221214 | 25 | 25 | 3.2 | 6.4 | 0.00 | 0.00 | 0.00 | 9 | 1234.2 |
| 20260507220711 | 26 | 329 | 8.0 | 11.3 | 0.00 | 0.00 | 0.00 | 9 | 1234.2 |
| 20260507220209 | 25 | 26 | 0.0 | 6.4 | 0.00 | 0.00 | 0.00 | 9 | 1234.5 |
| 20260507215705 | 26 | 332 | 4.8 | 17.7 | 0.00 | 0.00 | 0.00 | 8 | 1234.6 |
| 20260507215203 | 26 | 61 | 1.6 | 4.8 | 0.00 | 0.00 | 0.00 | 8 | 1234.7 |
| 20260507214700 | 25 | 200 | 0.0 | 8.0 | 0.00 | 0.00 | 0.00 | 8 | 1234.9 |
| 20260507214156 | 26 | 331 | 4.8 | 8.0 | 0.00 | 0.00 | 0.00 | 8 | 1234.9 |
| 20260507213652 | 26 | 89 | 0.0 | 6.4 | 0.00 | 0.00 | 0.00 | 8 | 1235.1 |
| 20260507213150 | 26 | 280 | 1.6 | 3.2 | 0.00 | 0.00 | 0.00 | 8 | 1235.1 |
| 20260507212646 | 26 | 215 | 4.8 | 6.4 | 0.00 | 0.00 | 0.00 | 8 | 1235.3 |
| 20260507212143 | 26 | 76 | 1.6 | 4.8 | 0.00 | 0.00 | 0.00 | 9 | 1235.6 |
| 20260507211640 | 25 | 341 | 0.0 | 3.2 | 0.00 | 0.00 | 0.00 | 9 | 1235.4 |
| 20260507211135 | 25 | 356 | 4.8 | 11.3 | 0.00 | 0.00 | 0.00 | 9 | 1235.6 |
| 20260507210633 | 25 | 313 | 3.2 | 4.8 | 0.00 | 0.00 | 0.00 | 10 | 1235.9 |
| 20260507210129 | 25 | 212 | 3.2 | 8.0 | 0.00 | 0.00 | 0.00 | 12 | 1235.8 |
| 20260507205626 | 24 | 189 | 3.2 | 6.4 | 0.00 | 0.00 | 0.00 | 11 | 1235.9 |
| 20260507205122 | 23 | 150 | 4.8 | 4.8 | 0.00 | 0.00 | 0.00 | 12 | 1236.1 |
| 20260507204619 | 23 | 352 | 3.2 | 3.2 | 0.00 | 0.00 | 0.00 | 12 | 1236.1 |
| 20260507204116 | 23 | 0 | 1.6 | 9.7 | 0.00 | 0.00 | 0.00 | 11 | 1236.2 |
| 20260507203614 | 24 | 320 | 8.0 | 14.5 | 0.00 | 0.00 | 0.00 | 12 | 1236.2 |
| 20260507203111 | 24 | 285 | 1.6 | 4.8 | 0.00 | 0.00 | 0.00 | 13 | 1236.5 |
| 20260507202607 | 23 | 139 | 3.2 | 3.2 | 0.00 | 0.00 | 0.00 | 15 | 1236.5 |
| 20260507202104 | 23 | 220 | 0.0 | 8.0 | 0.00 | 0.00 | 0.00 | 14 | 1236.7 |
| 20260507201559 | 23 | 98 | 3.2 | 8.0 | 0.00 | 0.00 | 0.00 | 14 | 1236.6 |
| 20260507201055 | 23 | 255 | 0.0 | 4.8 | 0.00 | 0.00 | 0.00 | 14 | 1236.7 |
| 20260507200551 | 24 | 44 | 0.0 | 4.8 | 0.00 | 0.00 | 0.00 | 14 | 1236.7 |
| 20260507200047 | 23 | 79 | 1.6 | 3.2 | 0.00 | 0.00 | 0.00 | 14 | 1236.8 |
| 20260507195545 | 22 | 153 | 1.6 | 6.4 | 0.00 | 0.00 | 0.00 | 16 | 1237.2 |
| 20260507195042 | 22 | 354 | 0.0 | 4.8 | 0.00 | 0.00 | 0.00 | 14 | 1237.2 |
| 20260507194538 | 23 | 154 | 0.0 | 3.2 | 0.00 | 0.00 | 0.00 | 16 | 1237.0 |
| 20260507194034 | 22 | 121 | 0.0 | 4.8 | 0.00 | 0.00 | 0.00 | 16 | 1237.2 |
| 20260507193532 | 22 | 75 | 0.0 | 6.4 | 0.00 | 0.00 | 0.00 | 17 | 1237.4 |
| 20260507193029 | 21 | 151 | 0.0 | 4.8 | 0.00 | 0.00 | 0.00 | 18 | 1237.5 |
| 20260507192525 | 21 | 243 | 0.0 | 8.0 | 0.00 | 0.00 | 0.00 | 18 | 1237.4 |
| 20260507192022 | 21 | 124 | 3.2 | 6.4 | 0.00 | 0.00 | 0.00 | 19 | 1237.7 |
| 20260507191517 | 21 | 193 | 3.2 | 9.7 | 0.00 | 0.00 | 0.00 | 18 | 1237.7 |
| 20260507191014 | 21 | 142 | 6.4 | 8.0 | 0.00 | 0.00 | 0.00 | 20 | 1237.7 |
| 20260507190512 | 21 | 140 | 3.2 | 8.0 | 0.00 | 0.00 | 0.00 | 18 | 1237.9 |
| 20260507190010 | 21 | 165 | 0.0 | 3.2 | 0.00 | 0.00 | 0.00 | 20 | 1238.0 |
| 20260507185508 | 20 | 328 | 1.6 | 3.2 | 0.00 | 0.00 | 0.00 | 20 | 1238.1 |
| 20260507185004 | 21 | 193 | 4.8 | 4.8 | 0.00 | 0.00 | 0.00 | 19 | 1238.3 |
| 20260507184502 | 20 | 327 | 0.0 | 3.2 | 0.00 | 0.00 | 0.00 | 21 | 1238.4 |
| 20260507184000 | 19 | 318 | 3.2 | 9.7 | 0.00 | 0.00 | 0.00 | 21 | 1238.7 |
| 20260507183456 | 19 | 177 | 8.0 | 8.0 | 0.00 | 0.00 | 0.00 | 21 | 1238.4 |
| 20260507182953 | 19 | 280 | 1.6 | 4.8 | 0.00 | 0.00 | 0.00 | 21 | 1238.6 |
| 20260507182449 | 18 | 156 | 1.6 | 14.5 | 0.00 | 0.00 | 0.00 | 22 | 1238.9 |
| 20260507181945 | 18 | 186 | 3.2 | 6.4 | 0.00 | 0.00 | 0.00 | 22 | 1238.9 |
| 20260507181442 | 18 | 180 | 6.4 | 9.7 | 0.00 | 0.00 | 0.00 | 22 | 1238.9 |
| 20260507180938 | 18 | 10 | 1.6 | 4.8 | 0.00 | 0.00 | 0.00 | 22 | 1239.1 |
| 20260507180435 | 19 | 32 | 4.8 | 6.4 | 0.00 | 0.00 | 0.00 | 21 | 1239.1 |
| 20260507175931 | 18 | 60 | 1.6 | 4.8 | 0.00 | 0.00 | 0.00 | 22 | 1239.0 |
| 20260507175428 | 18 | 31 | 4.8 | 6.4 | 0.00 | 0.00 | 0.00 | 22 | 1239.3 |
| 20260507174926 | 18 | 59 | 3.2 | 6.4 | 0.00 | 0.00 | 0.00 | 22 | 1239.3 |
| 20260507174423 | 18 | 45 | 0.0 | 6.4 | 0.00 | 0.00 | 0.00 | 23 | 1239.4 |
| 20260507173920 | 18 | 140 | 1.6 | 3.2 | 0.00 | 0.00 | 0.00 | 24 | 1239.6 |
| 20260507173417 | 18 | 75 | 0.0 | 4.8 | 0.00 | 0.00 | 0.00 | 24 | 1239.7 |
| 20260507172914 | 18 | 38 | 3.2 | 6.4 | 0.00 | 0.00 | 0.00 | 24 | 1239.7 |
| 20260507172411 | 18 | 52 | 0.0 | 8.0 | 0.00 | 0.00 | 0.00 | 23 | 1239.5 |
| 20260507171906 | 17 | 47 | 1.6 | 4.8 | 0.00 | 0.00 | 0.00 | 26 | 1239.7 |
| 20260507171403 | 17 | 265 | 3.2 | 6.4 | 0.00 | 0.00 | 0.00 | 24 | 1239.8 |
| 20260507170900 | 17 | 76 | 3.2 | 8.0 | 0.00 | 0.00 | 0.00 | 24 | 1239.8 |
| 20260507170357 | 17 | 55 | 4.8 | 4.8 | 0.00 | 0.00 | 0.00 | 25 | 1240.2 |
| 20260507165853 | 16 | 99 | 1.6 | 6.4 | 0.00 | 0.00 | 0.00 | 26 | 1240.2 |
| 20260507165349 | 16 | 338 | 0.0 | 4.8 | 0.00 | 0.00 | 0.00 | 25 | 1240.1 |
| 20260507164845 | 17 | 48 | 3.2 | 6.4 | 0.00 | 0.00 | 0.00 | 25 | 1240.2 |
| 20260507164342 | 17 | 27 | 1.6 | 3.2 | 0.00 | 0.00 | 0.00 | 26 | 1240.3 |
| 20260507163839 | 17 | 75 | 3.2 | 6.4 | 0.00 | 0.00 | 0.00 | 26 | 1240.4 |
| 20260507163337 | 15 | 68 | 3.2 | 4.8 | 0.00 | 0.00 | 0.00 | 29 | 1240.3 |
| 20260507162833 | 16 | 73 | 3.2 | 4.8 | 0.00 | 0.00 | 0.00 | 29 | 1240.3 |
| 20260507162329 | 15 | 86 | 3.2 | 8.0 | 0.00 | 0.00 | 0.00 | 31 | 1240.5 |
| 20260507161826 | 15 | 71 | 3.2 | 6.4 | 0.00 | 0.00 | 0.00 | 32 | 1240.4 |
| 20260507161322 | 15 | 82 | 3.2 | 4.8 | 0.00 | 0.00 | 0.00 | 32 | 1240.4 |
| 20260507160819 | 15 | 52 | 3.2 | 6.4 | 0.00 | 0.00 | 0.00 | 33 | 1240.7 |
| 20260507160315 | 14 | 91 | 3.2 | 6.4 | 0.00 | 0.00 | 0.00 | 34 | 1240.7 |
| 20260507155811 | 13 | 60 | 6.4 | 9.7 | 0.00 | 0.00 | 0.00 | 34 | 1240.7 |
| 20260507155307 | 13 | 43 | 6.4 | 6.4 | 0.00 | 0.00 | 0.00 | 34 | 1240.7 |
| 20260507154804 | 13 | 69 | 1.6 | 4.8 | 0.00 | 0.00 | 0.00 | 35 | 1240.5 |
| 20260507154301 | 13 | 53 | 3.2 | 6.4 | 0.00 | 0.00 | 0.00 | 37 | 1240.8 |
| 20260507153758 | 12 | 45 | 8.0 | 9.7 | 0.00 | 0.00 | 0.00 | 38 | 1240.9 |
| 20260507153254 | 12 | 61 | 6.4 | 8.0 | 0.00 | 0.00 | 0.00 | 39 | 1241.0 |
| 20260507152751 | 12 | 60 | 0.0 | 6.4 | 0.00 | 0.00 | 0.00 | 40 | 1240.8 |
| 20260507152248 | 12 | 59 | 6.4 | 8.0 | 0.00 | 0.00 | 0.00 | 41 | 1241.0 |
| 20260507151743 | 11 | 86 | 3.2 | 6.4 | 0.00 | 0.00 | 0.00 | 42 | 1240.9 |
| 20260507151240 | 11 | 78 | 3.2 | 6.4 | 0.00 | 0.00 | 0.00 | 43 | 1240.9 |
| 20260507150737 | 11 | 64 | 4.8 | 9.7 | 0.00 | 0.00 | 0.00 | 43 | 1240.9 |
| 20260507150234 | 10 | 73 | 4.8 | 9.7 | 0.00 | 0.00 | 0.00 | 46 | 1241.1 |
| 20260507145730 | 10 | 65 | 6.4 | 12.9 | 0.00 | 0.00 | 0.00 | 46 | 1241.1 |
| 20260507145226 | 10 | 72 | 6.4 | 9.7 | 0.00 | 0.00 | 0.00 | 48 | 1241.1 |
| 20260507144723 | 9 | 65 | 4.8 | 9.7 | 0.00 | 0.00 | 0.00 | 50 | 1241.1 |
| 20260507144221 | 8 | 82 | 6.4 | 8.0 | 0.00 | 0.00 | 0.00 | 52 | 1241.4 |
| 20260507143717 | 8 | 53 | 8.0 | 14.5 | 0.00 | 0.00 | 0.00 | 53 | 1241.4 |
| 20260507143215 | 8 | 59 | 6.4 | 14.5 | 0.00 | 0.00 | 0.00 | 53 | 1241.2 |
| 20260507142710 | 8 | 67 | 9.7 | 11.3 | 0.00 | 0.00 | 0.00 | 53 | 1241.1 |
| 20260507142207 | 8 | 69 | 8.0 | 9.7 | 0.00 | 0.00 | 0.00 | 52 | 1241.4 |
| 20260507141703 | 7 | 62 | 6.4 | 9.7 | 0.00 | 0.00 | 0.00 | 53 | 1241.1 |
| 20260507141200 | 7 | 70 | 6.4 | 9.7 | 0.00 | 0.00 | 0.00 | 53 | 1241.2 |
| 20260507140657 | 7 | 64 | 6.4 | 12.9 | 0.00 | 0.00 | 0.00 | 53 | 1241.2 |
| 20260507140154 | 7 | 53 | 8.0 | 12.9 | 0.00 | 0.00 | 0.00 | 54 | 1241.4 |
| 20260507135651 | 7 | 58 | 8.0 | 11.3 | 0.00 | 0.00 | 0.00 | 55 | 1241.2 |
| 20260507135148 | 6 | 58 | 8.0 | 11.3 | 0.00 | 0.00 | 0.00 | 56 | 1241.1 |
| 20260507134645 | 6 | 60 | 8.0 | 11.3 | 0.00 | 0.00 | 0.00 | 54 | 1241.4 |
| 20260507134141 | 6 | 59 | 6.4 | 14.5 | 0.00 | 0.00 | 0.00 | 54 | 1241.5 |
| 20260507133637 | 6 | 51 | 6.4 | 14.5 | 0.00 | 0.00 | 0.00 | 55 | 1241.5 |
| 20260507133135 | 6 | 100 | 3.2 | 9.7 | 0.00 | 0.00 | 0.00 | 55 | 1241.5 |
| 20260507132632 | 6 | 57 | 8.0 | 12.9 | 0.00 | 0.00 | 0.00 | 55 | 1241.4 |
| 20260507132128 | 6 | 351 | 6.4 | 8.0 | 0.00 | 0.00 | 0.00 | 56 | 1241.2 |
| 20260507131624 | 5 | 341 | 6.4 | 8.0 | 0.00 | 0.00 | 0.00 | 56 | 1241.2 |
| 20260507131122 | 5 | 3 | 3.2 | 6.4 | 0.00 | 0.00 | 0.00 | 57 | 1241.1 |
| 20260507130619 | 5 | 33 | 6.4 | 6.4 | 0.00 | 0.00 | 0.00 | 60 | 1241.1 |
| 20260507130117 | 5 | 12 | 3.2 | 6.4 | 0.00 | 0.00 | 0.00 | 63 | 1241.0 |
| 20260507125615 | 4 | 37 | 3.2 | 8.0 | 0.00 | 0.00 | 0.00 | 65 | 1241.2 |
| 20260507125112 | 4 | 51 | 3.2 | 4.8 | 0.00 | 0.00 | 0.00 | 66 | 1241.1 |
| 20260507124608 | 4 | 9 | 4.8 | 6.4 | 0.00 | 0.00 | 0.00 | 67 | 1241.0 |
| 20260507124107 | 3 | 345 | 3.2 | 6.4 | 0.00 | 0.00 | 0.00 | 68 | 1241.1 |
| 20260507123604 | 3 | 49 | 4.8 | 4.8 | 0.00 | 0.00 | 0.00 | 68 | 1241.0 |
| 20260507123101 | 3 | 96 | 4.8 | 6.4 | 0.00 | 0.00 | 0.00 | 68 | 1241.0 |
| 20260507122556 | 3 | 58 | 3.2 | 4.8 | 0.00 | 0.00 | 0.00 | 68 | 1240.8 |
| 20260507122052 | 3 | 65 | 3.2 | 6.4 | 0.00 | 0.00 | 0.00 | 68 | 1240.8 |
| 20260507121548 | 3 | 74 | 4.8 | 8.0 | 0.00 | 0.00 | 0.00 | 67 | 1240.8 |
| 20260507121044 | 3 | 36 | 3.2 | 6.4 | 0.00 | 0.00 | 0.00 | 67 | 1240.7 |
| 20260507120540 | 3 | 24 | 3.2 | 8.0 | 0.00 | 0.00 | 0.00 | 66 | 1240.8 |
| 20260507120038 | 3 | 5 | 3.2 | 6.4 | 0.00 | 0.00 | 0.00 | 66 | 1240.7 |
| 20260507115534 | 3 | 25 | 3.2 | 6.4 | 0.00 | 0.00 | 0.00 | 65 | 1240.7 |
| 20260507115030 | 3 | 57 | 3.2 | 6.4 | 0.00 | 0.00 | 0.00 | 65 | 1240.5 |
| 20260507114526 | 3 | 348 | 6.4 | 6.4 | 0.00 | 0.00 | 0.00 | 65 | 1240.7 |
| 20260507114023 | 3 | 16 | 6.4 | 6.4 | 0.00 | 0.00 | 0.00 | 64 | 1240.7 |
| 20260507113520 | 3 | 72 | 3.2 | 8.0 | 0.00 | 0.00 | 0.00 | 64 | 1240.4 |
| 20260507113017 | 3 | 56 | 3.2 | 6.4 | 0.00 | 0.00 | 0.00 | 63 | 1240.7 |
| 20260507112515 | 3 | 16 | 4.8 | 6.4 | 0.00 | 0.00 | 0.00 | 62 | 1240.5 |
| 20260507112012 | 3 | 38 | 3.2 | 6.4 | 0.00 | 0.00 | 0.00 | 61 | 1240.5 |
| 20260507111510 | 3 | 26 | 3.2 | 4.8 | 0.00 | 0.00 | 0.00 | 59 | 1240.5 |
| 20260507111005 | 3 | 38 | 4.8 | 6.4 | 0.00 | 0.00 | 0.00 | 57 | 1240.5 |
| 20260507110501 | 3 | 43 | 4.8 | 8.0 | 0.00 | 0.00 | 0.00 | 55 | 1240.7 |
| 20260507105958 | 4 | 13 | 3.2 | 4.8 | 0.00 | 0.00 | 0.00 | 53 | 1240.9 |
| 20260507105455 | 4 | 74 | 4.8 | 6.4 | 0.00 | 0.00 | 0.00 | 52 | 1240.5 |
| 20260507104951 | 5 | 50 | 3.2 | 6.4 | 0.00 | 0.00 | 0.00 | 51 | 1240.5 |
| 20260507104449 | 5 | 0 | 6.4 | 8.0 | 0.00 | 0.00 | 0.00 | 50 | 1240.7 |
| 20260507103944 | 5 | 69 | 4.8 | 6.4 | 0.00 | 0.00 | 0.00 | 50 | 1240.4 |
| 20260507103441 | 5 | 74 | 4.8 | 8.0 | 0.00 | 0.00 | 0.00 | 49 | 1240.7 |
| 20260507102937 | 5 | 76 | 3.2 | 4.8 | 0.00 | 0.00 | 0.00 | 47 | 1240.7 |
| 20260507102434 | 5 | 70 | 4.8 | 8.0 | 0.00 | 0.00 | 0.00 | 44 | 1240.5 |
| 20260507101931 | 5 | 27 | 6.4 | 6.4 | 0.00 | 0.00 | 0.00 | 42 | 1240.4 |
| 20260507101426 | 4 | 41 | 4.8 | 6.4 | 0.00 | 0.00 | 0.00 | 41 | 1240.3 |
| 20260507100922 | 4 | 48 | 3.2 | 6.4 | 0.00 | 0.00 | 0.00 | 41 | 1240.4 |
| 20260507100420 | 4 | 28 | 3.2 | 4.8 | 0.00 | 0.00 | 0.00 | 40 | 1240.5 |
| 20260507095918 | 4 | 5 | 4.8 | 4.8 | 0.00 | 0.00 | 0.00 | 39 | 1240.5 |
| 20260507095415 | 4 | 47 | 0.0 | 4.8 | 0.00 | 0.00 | 0.00 | 39 | 1240.7 |
| 20260507094912 | 4 | 81 | 3.2 | 4.8 | 0.00 | 0.00 | 0.00 | 39 | 1240.5 |
| 20260507094408 | 4 | 73 | 3.2 | 6.4 | 0.00 | 0.00 | 0.00 | 38 | 1240.3 |
| 20260507093905 | 5 | 358 | 4.8 | 8.0 | 0.00 | 0.00 | 0.00 | 38 | 1240.4 |
| 20260507093403 | 5 | 8 | 3.2 | 8.0 | 0.00 | 0.00 | 0.00 | 37 | 1240.3 |
| 20260507092902 | 5 | 55 | 3.2 | 4.8 | 0.00 | 0.00 | 0.00 | 37 | 1240.5 |
| 20260507092357 | 6 | 36 | 3.2 | 6.4 | 0.00 | 0.00 | 0.00 | 36 | 1240.4 |
| 20260507091854 | 6 | 55 | 4.8 | 4.8 | 0.00 | 0.00 | 0.00 | 35 | 1240.5 |
| 20260507091350 | 6 | 46 | 3.2 | 4.8 | 0.00 | 0.00 | 0.00 | 35 | 1240.5 |
| 20260507090846 | 6 | 63 | 6.4 | 6.4 | 0.00 | 0.00 | 0.00 | 34 | 1240.3 |
| 20260507090342 | 6 | 334 | 8.0 | 9.7 | 0.00 | 0.00 | 0.00 | 35 | 1240.3 |
| 20260507085840 | 6 | 68 | 3.2 | 6.4 | 0.00 | 0.00 | 0.00 | 36 | 1240.4 |
| 20260507085336 | 6 | 92 | 3.2 | 4.8 | 0.00 | 0.00 | 0.00 | 36 | 1240.5 |
| 20260507084834 | 6 | 75 | 4.8 | 4.8 | 0.00 | 0.00 | 0.00 | 34 | 1240.3 |
| 20260507084330 | 6 | 69 | 4.8 | 8.0 | 0.00 | 0.00 | 0.00 | 34 | 1240.3 |
| 20260507083828 | 6 | 68 | 4.8 | 8.0 | 0.00 | 0.00 | 0.00 | 34 | 1240.1 |
| 20260507083324 | 6 | 59 | 6.4 | 8.0 | 0.00 | 0.00 | 0.00 | 34 | 1240.1 |
| 20260507082820 | 5 | 49 | 8.0 | 9.7 | 0.00 | 0.00 | 0.00 | 36 | 1240.1 |
| 20260507082316 | 5 | 74 | 6.4 | 6.4 | 0.00 | 0.00 | 0.00 | 37 | 1240.0 |
| 20260507081814 | 5 | 69 | 4.8 | 6.4 | 0.00 | 0.00 | 0.00 | 37 | 1239.8 |
| 20260507081309 | 5 | 39 | 3.2 | 6.4 | 0.00 | 0.00 | 0.00 | 37 | 1239.8 |
| 20260507080806 | 5 | 17 | 3.2 | 4.8 | 0.00 | 0.00 | 0.00 | 37 | 1239.7 |
| 20260507080302 | 6 | 356 | 3.2 | 6.4 | 0.00 | 0.00 | 0.00 | 36 | 1239.7 |
| 20260507075757 | 6 | 42 | 3.2 | 4.8 | 0.00 | 0.00 | 0.00 | 35 | 1239.7 |